• Join FlightAware (Why Join?)
  • Login
  • US Flag 
08:23PM EST


 

Airport Tracker/Info


-or-


 

Live Flight TrackerFlight Track Log ✈ SKW6523 ✈ 11-Jul-2013 ✈ KDEN - KIDA

Flight Track Log - Related Links

Times and Time Zones

All times are in EDT time to prevent confusion due to time zone crossing. See the SKW6523 flight status page for this flight to view local times or setup timezone preferences in your user account.

Time Position Orientation Groundspeed Altitude Reporting Facility
EDT Latitude Longitude Course Direction KTS MPH feet Rate Location/Type
09:14PM 39.8167 -104.6833 348° North 203 234 7,200  Level Denver TRACON
09:15PM 39.8667 -104.7667 308° West 268 308 8,900 1,320 Climbing Denver TRACON
09:16PM 40.1892 -104.7784 347° North  Level FlightAware Approximate
09:16PM 39.8917 -104.8264 299° West 282 325 9,600  Level Denver Center
09:17PM 40.3030 -104.8126 347° North  Level FlightAware Approximate
09:17PM 39.9353 -104.9239 300° West 308 354 11,500  Level Denver Center
09:18PM 40.4164 -104.8499 346° North  Level FlightAware Approximate
09:18PM 40.0228 -104.9469 349° North 311 358 13,500  Level Denver Center
09:19PM 40.5297 -104.8870 348° North  Level FlightAware Approximate
09:19PM 40.1128 -104.9367 North 319 367 15,400  Level Denver Center
09:20PM 40.2033 -104.9258 North 326 375 17,200 1,560 Climbing Denver Center
09:21PM 40.3011 -104.9144 North 327 376 18,700 960 Climbing Denver Center
09:22PM 40.4003 -104.9031 North 362 417 19,300 720 Climbing Denver Center
09:23PM 40.5050 -104.8911 North 375 432 20,200 840 Climbing Denver Center
09:24PM 40.6139 -104.9286 345° North 369 425 21,100 720 Climbing Denver Center
09:25PM 40.7194 -104.9611 347° North 387 445 21,800 660 Climbing Denver Center
09:26PM 40.8233 -104.9789 353° North 387 445 22,500 720 Climbing Denver Center
09:27PM 40.9361 -104.9869 357° North 403 464 23,300 720 Climbing Denver Center
09:28PM 41.0681 -104.9942 358° North 408 470 24,000 660 Climbing Denver Center
09:29PM 41.1736 -105.0289 346° North 421 484 24,700 480 Climbing Denver Center
09:30PM 41.2153 -105.1239 300° West 392 451 25,100 960 Climbing Denver Center
09:31PM 41.2656 -105.2911 292° West 381 438 26,700 1,200 Climbing Denver Center
09:32PM 41.3017 -105.4114 292° West 371 427 27,700 840 Climbing Denver Center
09:33PM 41.3428 -105.5506 292° West 364 419 28,500 660 Climbing Denver Center
09:34PM 41.3789 -105.6711 292° West 366 421 29,100 660 Climbing Denver Center
09:35PM 41.4206 -105.8122 292° West 366 421 29,900 600 Climbing Denver Center
09:36PM 41.4567 -105.9361 291° West 371 427 30,400 480 Climbing Denver Center
09:37PM 41.4983 -106.0808 291° West 375 432 31,000 480 Climbing Denver Center
09:38PM 41.5344 -106.2050 291° West 374 430 31,500 480 Climbing Denver Center
09:39PM 41.5764 -106.3511 291° West 378 435 32,000 240 Climbing Denver Center
09:40PM 41.6122 -106.4767 291° West 377 434 32,000  Level Denver Center
09:41PM 41.6503 -106.6089 291° West 391 450 32,000  Level Denver Center
09:43PM 41.6950 -106.7636 291° West 401 461 32,000  Level Denver Center
09:44PM 41.7331 -106.8969 291° West 400 460 32,000  Level Denver Center
09:45PM 41.7767 -107.0550 290° West 405 466 32,000  Level Denver Center
09:46PM 41.8158 -107.1925 291° West 411 473 32,000  Level Denver Center
09:47PM 41.8614 -107.3511 291° West 410 472 32,000  Level Denver Center
09:48PM 41.8983 -107.4911 290° West 414 476 32,000  Level Denver Center
09:49PM 41.9425 -107.6531 290° West 415 478 32,000  Level Denver Center
09:50PM 41.9822 -107.7936 291° West 419 482 32,000  Level Denver Center
09:50PM 42.0119 -107.9086 289° West 416 479 32,000  Level Salt Lake Center
09:52PM 42.0483 -108.0475 289° West 413 475 32,000  Level Salt Lake Center
09:53PM 42.0956 -108.2156 291° West 426 490 32,000  Level Salt Lake Center
09:54PM 42.1322 -108.3556 289° West 419 482 32,000  Level Salt Lake Center
09:55PM 42.1750 -108.5186 290° West 416 479 32,000  Level Salt Lake Center
09:56PM 42.2111 -108.6581 289° West 414 476 32,000  Level Salt Lake Center
09:57PM 42.2536 -108.8225 289° West 417 480 32,000  Level Salt Lake Center
09:58PM 42.2897 -108.9633 289° West 415 478 32,000  Level Salt Lake Center
09:59PM 42.3267 -109.1044 290° West 417 480 32,000  Level Salt Lake Center
10:00PM 42.3686 -109.2697 289° West 418 481 32,000  Level Salt Lake Center
10:01PM 42.4039 -109.4097 289° West 415 478 32,000  Level Salt Lake Center
10:02PM 42.4453 -109.5728 289° West 412 474 32,000  Level Salt Lake Center
10:03PM 42.4808 -109.7131 289° West 412 474 32,000  Level Salt Lake Center
10:04PM 42.5211 -109.8756 289° West 410 472 32,000 -840 Level Salt Lake Center
10:05PM 42.5561 -110.0189 288° West 417 480 30,400 -1,920 Descending Salt Lake Center
10:06PM 42.6133 -110.1822 296° West 431 496 28,100 -2,040 Descending Salt Lake Center
10:07PM 42.6753 -110.3047 305° West 415 478 26,200 -1,980 Descending Salt Lake Center
10:08PM 42.7403 -110.4383 304° West 404 465 24,100 -2,040 Descending Salt Lake Center
10:09PM 42.7997 -110.5569 304° West 398 458 22,100 -2,160 Descending Salt Lake Center
10:10PM 42.8694 -110.7006 304° West 392 451 19,700 -1,980 Descending Salt Lake Center
10:11PM 42.9269 -110.8181 304° West 376 433 18,100 -1,440 Descending Salt Lake Center
10:12PM 42.9825 -110.9336 303° West 365 420 16,800 -1,380 Descending Salt Lake Center
10:13PM 43.0367 -111.0433 304° West 352 405 15,300 -1,500 Descending Salt Lake Center
10:14PM 43.0881 -111.1508 303° West 340 391 13,800 -1,500 Descending Salt Lake Center
10:15PM 43.1389 -111.2586 303° West 337 388 12,200 -900 Descending Salt Lake Center
10:16PM 43.1911 -111.3644 304° West 335 386 12,000 -240 Descending Salt Lake Center
10:17PM 43.2483 -111.4878 303° West 339 390 11,800 -360 Descending Salt Lake Center
10:18PM 43.2986 -111.5925 303° West 341 392 11,300 -540 Descending Salt Lake Center
10:19PM 43.3481 -111.7011 302° West 324 373 10,800 -540 Descending Salt Lake Center
10:20PM 43.3839 -111.7706 305° West 264 304 10,300 -480 Descending Salt Lake Center
10:21PM 43.4225 -111.8567 302° West 246 283 9,900 -780 Descending Salt Lake Center
10:22PM 43.4636 -111.9069 318° Northwest 227 261 8,800 -1,080 Descending Salt Lake Center